Location: Newark
(25.0000°N, 73.5000°E)
Time: 04:53:15
(UTC+00:00)

Altair - Pass Details

Date: 10 March 2021
Orbit: 1501 x 1683 km, 47.2° (Epoch: 12 April)

Event Time Altitude Azimuth Distance (km) Brightness Sun altitude
Rises 07:52:26 0° 170° (S) 4,678 10.4 59.7°
Reaches altitude 10° 07:59:12 10° 136° (SE) 3,663 9.8 59.2°
Maximum altitude 08:01:02 11° 124° (ESE) 3,601 9.7 59.1°
Drops below altitude 10° 08:02:53 10° 112° (ESE) 3,653 9.6 58.9°
Sets 08:09:30 0° 78° (ENE) 4,629 9.8 58.3°
